Dewpoint
28 28 29 29 29 29 28 28 29 29 29 28 28 28 29 29 28 28 29 29 29 29 29 29 30 30 30 31 32 32 32 32 33 34 35 36 36 36 36 37 37 38 38 40 41 42 44 46 48 48 48 49 48 48 48 48 47 47 46 46 45 45 44 45 44 43 42 41 42
28 28 28 29 29 29 28 28 28 29 28 28 28 29 29 29 28 28 29 29 29 29 29 29 30 30 31 31 32 32 32 33 33 34 35 35 35 35 36 36 37 37 38 39 40 42 44 46 47 48 48 48 48 48 48 48 47 46 46 45 44 44 44 44 43 42 41 41 41
27 27 27 27 27 27 27 27 27 28 28 28 28 28 28 28 28 28 28 29 29 29 30 30 30 30 31 31 32 32 33 33 34 34 34 34 35 35 36 36 36 37 38 38 39 41 43 46 47 48 48 48 48 48 47 47 47 47 46 44 45 45 45 44 43 42 42 42 41
26 26 27 27 27 27 27 27 27 27 28 28 28 28 28 28 28 28 28 29 29 30 30 30 31 31 31 32 32 32 33 33 34 34 34 34 34 35 35 36 36 37 38 38 39 41 43 45 47 48 48 48 47 47 47 47 46 46 46 44 44 44 44 44 43 43 43 42 41
26 26 26 27 27 27 27 27 27 28 28 28 28 28 28 28 28 28 29 29 30 30 31 31 31 32 32 32 32 32 32 33 34 34 34 34 34 35 35 36 37 37 38 39 40 41 42 45 47 48 48 47 47 46 46 45 45 45 45 44 43 43 43 43 42 42 42 42 42
26 26 26 27 27 27 27 27 28 28 28 28 27 27 27 28 28 29 29 30 30 31 31 32 32 32 32 32 32 32 33 33 33 33 33 33 34 35 35 36 36 37 38 39 40 41 43 45 47 48 48 48 47 46 45 45 45 45 44 42 42 42 42 41 41 41 41 42 42
25 26 26 26 27 27 27 27 28 28 28 28 27 27 27 28 28 29 30 30 31 31 32 33 32 32 32 32 33 33 33 33 33 33 33 34 34 35 35 36 36 37 38 39 41 42 44 46 47 47 48 48 48 47 46 45 45 45 44 42 41 41 41 41 41 41 41 41 41
25 25 26 26 27 27 27 27 28 28 28 28 27 27 27 28 29 29 30 31 31 32 32 32 32 32 32 33 33 33 34 34 34 34 34 34 35 35 36 36 36 37 38 39 41 43 45 46 46 47 47 47 47 47 46 45 45 45 44 42 41 40 40 40 40 40 40 40 40
25 25 25 26 27 27 27 27 28 28 28 27 27 27 27 28 29 30 30 31 32 32 32 32 32 33 33 33 33 34 34 34 34 35 35 35 35 36 36 36 37 37 39 40 42 43 45 45 46 46 47 47 47 46 46 46 45 44 43 43 41 40 40 39 40 40 40 40 40
24 24 25 25 26 27 27 27 28 28 28 27 27 27 28 30 30 30 31 32 32 32 33 32 33 33 33 33 33 34 35 35 36 36 36 36 36 36 36 37 37 38 39 41 42 44 44 45 45 46 46 46 46 45 45 45 45 44 44 44 42 41 39 39 39 39 39 39 39
24 24 24 25 26 27 27 27 28 28 28 27 27 27 27 29 29 30 31 32 32 33 33 33 32 32 32 33 33 34 35 36 37 37 37 37 38 38 38 38 38 39 40 41 43 43 44 44 45 45 45 45 45 45 44 44 44 44 43 43 42 41 40 39 38 38 38 38 38
24 24 24 25 25 26 27 27 27 27 27 27 26 26 27 28 29 30 32 32 33 33 33 32 32 32 32 32 33 34 35 36 36 36 36 36 37 38 39 40 40 41 41 42 42 42 42 43 43 44 45 45 44 44 44 43 43 43 43 43 42 41 41 40 39 38 38 38 38
24 24 24 24 25 25 26 26 27 27 26 26 25 26 27 28 29 31 32 33 34 33 32 32 32 32 32 32 32 33 34 35 35 35 34 34 35 37 39 41 42 42 43 44 43 42 41 41 43 44 44 44 44 43 43 43 43 43 42 41 41 41 40 40 40 39 38 38 38
24 24 24 24 24 24 25 26 26 26 26 25 25 26 26 27 29 31 32 33 33 33 32 32 32 32 32 32 32 32 33 34 34 34 34 34 34 35 38 41 42 43 44 44 43 43 42 41 41 42 43 43 43 42 42 42 42 41 41 40 40 40 39 39 39 39 38 38 38
23 23 23 23 23 23 24 24 25 25 25 25 25 25 26 27 28 30 32 32 32 32 32 32 32 32 32 31 31 32 32 33 34 34 34 34 34 35 36 37 39 41 43 44 43 43 42 41 41 41 41 41 41 41 41 41 40 40 39 38 38 38 38 38 39 38 38 37 37
23 23 23 23 23 23 23 23 24 24 23 23 24 25 25 27 28 29 31 32 32 32 32 32 32 32 32 32 31 31 32 32 33 34 34 34 35 35 35 36 36 38 40 42 42 42 41 41 41 40 39 39 39 39 39 39 38 38 37 37 37 37 38 38 38 38 37 37 37
23 23 23 23 23 23 23 23 23 23 23 23 23 24 25 26 27 29 30 32 32 32 32 32 32 32 32 32 32 32 32 32 32 33 34 35 35 35 35 35 35 36 36 38 39 40 40 40 40 39 39 39 38 38 38 38 37 37 37 37 37 37 37 38 37 37 37 37 37
22 23 23 24 24 24 24 24 23 23 23 23 24 25 25 27 28 29 30 32 32 32 32 32 32 32 32 31 31 32 32 32 32 33 34 35 36 36 35 35 35 35 35 35 36 36 37 37 38 38 38 38 37 37 37 37 37 36 36 36 36 37 37 37 37 37 37 37 37
22 23 23 24 25 25 25 25 24 24 24 24 25 25 26 27 28 29 30 31 32 32 32 32 32 32 32 31 31 32 32 32 32 32 33 35 36 36 36 36 35 34 34 34 34 34 35 35 36 36 36 36 36 36 36 36 36 36 36 36 36 36 36 36 37 37 37 37 37
22 23 23 24 24 24 25 25 24 24 24 25 25 25 26 26 27 28 29 31 32 32 32 32 32 32 31 31 30 31 31 32 32 32 32 34 35 36 36 36 36 35 34 33 33 33 33 34 34 34 34 34 34 34 34 34 34 34 35 35 35 35 35 35 36 36 36 37 37
23 23 23 23 23 24 24 24 24 24 24 24 24 24 25 26 27 27 29 30 31 32 32 32 32 31 31 30 30 30 30 31 31 31 32 32 33 35 36 36 36 36 35 34 33 33 33 33 33 33 33 32 32 32 32 32 32 32 33 33 33 33 33 33 34 34 35 36 37
24 23 23 23 23 23 24 24 24 23 23 24 24 24 24 25 26 27 28 29 30 31 32 32 32 31 31 30 30 29 29 30 30 30 31 32 32 34 35 36 36 36 35 34 33 33 32 32 32 32 32 32 32 32 32 32 32 32 32 32 32 32 32 32 32 32 33 34 35
23 23 23 23 23 23 23 23 23 23 23 23 23 24 24 25 26 27 27 29 30 31 31 32 32 31 31 30 30 29 29 29 29 29 30 31 31 32 33 35 36 36 36 35 34 33 32 32 32 32 32 32 32 32 32 31 31 31 31 31 31 31 31 32 32 32 32 33 34
23 23 23 23 23 23 23 23 23 23 23 23 23 23 24 24 25 26 27 28 29 30 31 32 32 32 31 31 30 29 28 28 28 28 29 29 30 31 32 33 35 36 37 37 36 36 34 32 32 32 32 32 31 31 31 31 31 31 31 31 31 31 31 31 31 32 32 32 33
22 22 22 22 22 22 22 22 22 22 22 23 23 23 23 24 25 26 27 27 28 29 31 32 32 32 31 30 29 29 28 27 27 27 27 28 28 29 30 31 33 35 37 38 38 37 37 36 34 32 32 31 31 31 30 30 30 30 30 30 30 30 30 30 31 31 32 32 32
21 21 21 21 21 21 21 21 21 21 22 22 23 23 23 23 24 25 26 26 27 28 30 32 32 32 31 30 29 29 28 27 27 27 27 27 27 27 28 29 30 32 36 39 38 38 37 37 36 34 32 31 31 30 29 29 28 28 28 29 29 29 29 29 30 30 31 32 32
20 20 20 20 20 19 19 20 20 20 21 21 22 22 22 23 24 24 25 26 27 28 30 31 31 31 31 29 29 28 28 27 27 27 27 27 27 26 26 27 28 31 34 37 39 38 37 37 36 35 33 31 30 29 29 28 27 27 27 27 28 28 28 29 29 30 31 31 32
17 18 18 18 18 18 18 19 19 19 20 20 21 21 22 22 23 23 24 25 26 27 28 30 31 31 30 29 28 28 28 27 27 27 27 27 26 25 25 25 26 28 32 35 38 38 37 36 36 35 34 32 30 29 28 27 27 27 27 27 27 28 28 28 29 29 30 30 31
15 15 16 15 15 15 16 18 18 18 18 19 20 20 21 21 22 22 23 24 25 26 27 29 30 30 29 29 28 28 28 27 27 27 27 27 26 25 24 24 24 27 30 33 37 38 37 36 36 35 34 32 30 28 27 27 26 26 26 27 27 27 27 28 28 29 29 30 30
15 15 15 15 15 15 16 16 17 17 17 18 18 19 20 20 21 21 22 23 24 25 25 27 29 29 29 29 28 28 28 28 28 27 27 27 26 25 24 24 24 26 29 33 37 38 37 35 35 34 34 32 29 28 27 27 27 27 27 27 27 27 27 28 28 28 29 29 30
15 15 15 15 15 15 15 16 15 15 15 16 17 18 18 19 19 19 20 21 23 24 25 25 26 28 29 29 29 28 28 28 28 28 27 27 27 26 25 23 23 25 29 34 37 38 37 35 34 34 33 32 30 28 27 27 27 27 27 27 27 27 27 28 28 28 29 29 29
15 15 15 14 15 15 15 15 15 15 16 16 16 16 16 16 17 18 18 20 21 22 23 23 24 26 28 29 29 28 28 28 28 28 28 27 27 26 25 24 23 25 30 36 38 38 36 35 34 33 33 32 30 28 27 27 27 27 27 27 27 27 27 28 28 28 29 29 29
15 15 14 14 15 15 15 16 16 15 15 15 14 14 14 14 16 17 18 19 21 21 21 22 22 23 25 27 28 28 27 27 28 28 28 28 27 27 25 24 23 27 32 39 38 37 35 34 33 33 32 32 30 28 27 27 27 27 27 26 26 26 26 27 27 28 29 29 29
15 15 14 14 15 15 15 16 15 14 14 13 13 13 14 14 15 16 18 19 20 20 21 21 21 22 23 24 26 27 27 27 27 27 27 27 27 26 25 23 24 27 33 40 37 35 34 33 33 32 32 31 29 27 27 27 26 25 25 24 23 23 23 24 25 27 28 30 29
15 15 14 14 14 15 15 16 15 14 14 13 13 13 14 14 15 16 18 19 20 20 20 19 20 20 21 22 24 25 25 25 25 26 27 27 26 25 24 23 24 28 33 39 35 33 33 32 32 32 31 29 27 26 26 25 24 23 22 21 21 21 20 21 22 24 27 30 29
15 14 14 14 14 15 15 16 16 15 14 13 13 13 13 14 15 16 18 19 19 19 18 19 19 19 19 21 23 24 24 23 24 26 27 26 26 24 23 22 23 27 32 37 35 32 31 31 31 30 29 27 25 25 24 24 23 21 20 19 19 19 19 18 19 21 24 28 30
14 14 15 15 14 14 15 16 16 15 14 13 13 13 14 14 15 16 17 18 18 18 18 18 18 18 19 20 22 23 24 23 24 25 26 25 24 23 22 21 23 25 29 34 35 32 29 29 29 29 27 25 23 23 23 23 21 20 19 18 18 18 18 18 18 19 22 26 29
15 15 15 15 14 14 15 16 17 16 14 13 13 13 14 14 14 15 17 18 17 17 18 18 18 19 19 20 22 23 24 23 24 25 25 24 23 23 22 20 22 24 27 32 35 33 29 28 28 27 27 23 23 22 21 21 20 19 18 18 18 18 18 18 18 19 21 24 29
14 15 15 14 14 14 14 16 17 16 15 13 13 13 13 14 14 15 16 17 17 17 18 18 18 19 20 21 21 23 24 23 23 24 24 23 23 23 23 20 21 23 26 29 34 33 31 27 27 27 26 23 22 21 20 20 19 18 18 17 17 17 17 18 18 19 20 23 28
13 14 14 13 13 14 14 17 17 16 14 13 12 12 13 14 14 15 15 16 16 17 17 18 18 19 20 21 21 22 23 23 22 22 23 23 23 24 23 21 21 23 25 28 32 34 33 30 27 27 25 23 21 20 20 19 18 18 18 17 17 17 17 17 18 19 20 21 25
12 12 13 13 13 14 15 17 17 15 14 12 12 13 14 14 14 14 14 14 15 16 17 18 18 19 20 21 20 21 23 23 22 21 21 21 22 23 23 21 21 22 24 27 29 32 34 33 31 28 25 23 21 20 20 19 18 18 17 17 17 16 17 18 18 19 19 20 21